GFSNGP_850_thetae_273.txt.gz
Theta_e
319 318 319 321 322 317 317 317 318 320 317 319 329 337 340 344 345 347 347 347 347 347 346 345 344 344 344 344 344 345 346 347 347 348 349 348 354 353 352 353 352 348 349 350
327 321 322 321 322 321 320 319 318 318 319 317 325 341 341 342 343 343 345 348 348 347 346 346 345 344 346 347 347 348 349 351 350 350 351 353 354 352 352 353 352 350 350 349
327 323 323 321 320 321 322 322 323 322 321 320 331 343 344 345 345 344 348 348 348 347 347 347 347 348 349 350 351 351 353 354 353 353 353 354 352 350 351 351 349 349 346 342
327 325 331 321 322 321 328 330 329 328 330 330 330 333 344 344 346 345 346 348 348 348 348 349 351 351 350 350 350 352 356 357 356 355 355 353 351 351 348 344 342 343 346 347
330 327 326 328 329 328 326 331 329 330 330 331 332 338 340 347 349 345 344 346 348 348 349 350 351 352 352 352 352 351 354 355 354 353 351 350 348 345 341 342 342 343 342 346
325 330 331 326 330 329 326 329 328 329 328 330 331 331 339 335 346 353 353 350 349 350 350 352 353 351 351 350 350 350 349 348 348 347 346 343 342 342 341 338 332 334 339 346
326 330 331 327 327 329 330 326 328 328 329 328 327 330 336 345 340 350 354 354 352 353 354 353 350 350 349 348 347 347 345 343 341 340 341 341 338 335 329 327 330 331 331 343
322 327 327 327 327 331 328 328 328 328 327 326 327 329 332 346 344 344 353 354 355 354 353 350 349 349 348 347 342 339 336 337 336 332 328 322 319 319 320 321 321 325 334 341
323 323 324 327 325 325 327 328 328 328 327 326 326 327 331 341 348 349 354 354 355 354 351 350 348 347 347 345 343 341 339 332 326 323 320 321 322 320 319 318 317 319 324 336
320 321 323 322 322 324 326 326 327 328 327 326 326 327 329 335 344 351 353 354 352 351 349 348 346 345 344 343 339 334 336 330 322 323 325 326 323 322 322 319 317 317 317 320
317 318 320 322 323 323 322 323 324 327 327 327 327 326 327 327 334 344 349 351 351 350 347 346 345 344 343 341 335 324 320 322 325 326 325 325 326 326 324 322 322 321 319 317
318 318 319 321 320 321 322 323 324 324 324 324 325 325 327 328 332 340 342 343 346 347 345 343 343 343 338 331 321 321 325 328 328 328 327 329 327 325 325 324 322 322 321 320
317 319 320 319 318 318 321 323 323 324 325 324 324 325 328 328 331 338 338 338 338 336 335 333 334 333 326 325 326 328 326 327 329 329 328 327 325 325 324 322 322 321 320 317
317 317 316 318 318 318 320 322 323 323 323 325 323 325 328 335 330 337 336 335 335 333 330 329 329 330 329 329 329 326 325 324 325 324 324 323 324 323 322 320 320 319 316 314
321 321 320 320 320 320 321 322 323 323 322 323 324 327 327 335 336 336 333 331 327 325 322 323 326 325 326 328 327 325 324 324 323 322 321 320 320 320 320 319 315 314 314 314
318 319 321 321 322 322 322 323 324 324 324 325 325 325 329 333 334 334 332 330 327 322 323 325 325 323 325 326 326 325 322 320 319 318 319 319 319 317 314 313 313 313 313 313
317 318 319 320 321 323 322 322 321 322 323 324 325 325 327 333 333 333 329 330 327 327 326 321 323 323 324 323 322 320 319 319 319 318 317 315 313 312 312 312 313 313 313 313
318 318 320 321 321 322 322 322 322 323 322 323 325 325 330 332 331 330 329 329 327 324 321 320 319 319 322 322 321 319 319 318 317 314 311 311 311 312 312 312 312 312 312 312
321 321 320 321 321 322 322 322 322 323 322 324 324 324 329 331 330 329 328 328 323 321 320 319 319 320 321 320 319 318 317 314 310 310 310 310 310 310 310 310 310 310 310 310
318 320 320 320 321 321 320 321 322 323 323 324 323 325 327 327 328 327 328 326 325 323 321 317 317 318 318 317 316 313 309 309 309 308 308 309 310 311 311 311 311 310 310 309
317 318 319 320 320 320 319 319 320 322 323 323 324 325 327 327 327 329 328 326 323 323 321 316 315 316 315 312 309 308 307 307 307 307 305 305 306 306 307 308 309 309 309 309
318 318 319 321 321 320 319 319 319 322 324 325 325 326 327 327 327 328 327 326 323 322 320 315 315 314 311 308 308 307 307 307 307 307 307 307 305 303 304 306 307 307 306 306
319 318 318 318 321 322 321 322 323 324 324 325 326 325 327 326 325 325 325 323 322 321 317 314 313 312 310 310 310 309 309 309 309 309 308 308 306 303 305 306 306 306 305 305
318 317 317 318 319 322 323 322 320 321 323 325 326 326 325 325 325 323 322 323 322 319 317 314 313 313 312 312 311 310 310 310 310 309 309 308 307 304 303 302 305 305 305 304
319 317 319 317 318 316 319 317 319 322 321 319 321 322 320 319 319 322 322 322 321 319 315 313 312 313 313 313 313 313 311 310 310 310 310 308 307 306 304 302 300 300 301 302
319 318 317 319 319 316 316 316 318 319 320 321 320 320 317 318 320 321 322 322 320 316 315 314 313 312 313 314 314 314 313 313 311 310 310 310 308 307 306 304 301 300 300 301
318 318 318 318 319 319 319 319 319 320 318 317 319 321 321 321 322 321 322 321 318 317 315 313 313 312 312 314 313 313 313 313 313 311 310 309 309 309 307 307 304 299 300 299

GFSNGP_850_thetae_276.txt.gz
Theta_e
318 320 319 318 319 318 315 316 319 322 315 318 319 319 322 328 332 341 343 345 345 346 347 346 345 343 343 342 343 343 343 343 343 345 344 346 348 341 349 353 349 348 347 348
328 325 324 324 320 319 316 317 315 317 317 318 324 329 337 337 339 342 343 347 348 347 347 347 347 346 345 344 343 343 343 343 344 346 348 348 349 345 352 351 350 347 349 349
328 323 324 328 322 321 320 328 326 319 323 327 328 330 332 336 340 342 343 348 348 347 346 346 346 346 346 345 344 344 344 345 347 349 350 350 350 350 351 350 349 349 347 342
326 326 332 326 324 325 329 329 328 329 330 329 330 331 336 338 342 342 343 347 347 346 347 347 346 346 345 346 346 347 349 350 352 354 353 353 352 352 351 349 348 344 341 343
327 326 326 328 329 330 329 328 328 329 329 329 329 335 339 338 342 346 348 345 346 347 347 347 347 347 348 348 350 350 351 352 354 354 354 354 354 352 349 347 341 339 336 333
321 328 330 326 329 327 328 327 327 328 327 328 327 331 330 334 342 341 347 351 347 347 348 348 348 349 349 350 350 350 350 352 355 355 354 353 350 348 345 340 339 331 328 328
321 323 323 326 326 327 332 330 327 328 327 327 326 327 328 330 335 343 340 348 351 349 350 350 350 350 350 350 349 348 350 351 351 351 350 348 345 342 340 336 327 322 320 330
319 324 326 325 323 327 326 327 328 328 328 327 327 326 327 329 332 330 338 343 353 351 350 351 351 351 351 348 347 349 349 348 345 344 343 341 340 337 327 321 317 317 321 326
319 320 320 325 324 322 322 326 326 327 327 328 327 326 326 327 329 332 330 344 351 354 352 352 353 352 349 347 347 346 345 343 342 340 333 327 322 318 316 316 316 317 318 320
319 319 320 321 318 320 322 324 324 324 325 326 327 327 327 325 328 330 337 332 343 351 353 353 353 350 348 347 343 341 338 338 334 328 324 323 322 321 318 317 316 315 315 315
316 315 317 317 320 320 319 320 321 322 324 324 325 324 324 325 327 333 337 343 344 346 351 352 350 349 347 345 343 341 338 334 330 327 327 325 324 323 321 319 318 316 316 316
317 316 316 317 317 318 319 318 318 319 322 323 324 324 324 323 327 334 336 343 347 347 347 346 345 345 344 342 340 336 337 334 331 331 329 328 325 323 322 321 320 320 318 316
316 317 316 317 317 318 318 318 317 318 322 323 322 322 324 324 324 334 337 338 341 342 343 342 338 340 336 335 332 329 327 328 331 334 329 329 325 324 322 321 320 320 317 314
319 318 318 320 320 320 319 319 319 319 320 321 323 322 323 325 325 332 336 335 338 339 338 337 335 333 331 330 327 326 328 329 331 330 330 327 324 324 322 321 320 317 314 313
319 318 318 318 319 320 320 321 320 321 323 323 323 324 323 325 327 330 332 334 335 334 335 332 331 329 328 324 323 323 322 327 327 326 324 324 324 322 320 318 315 312 312 312
317 316 316 317 318 319 320 321 321 322 323 324 322 323 325 325 329 328 330 331 332 329 327 327 326 326 326 325 323 321 321 320 320 323 322 320 319 318 316 313 312 312 312 313
318 317 318 317 317 318 318 320 322 322 321 321 320 322 324 327 328 329 329 328 325 325 325 325 326 326 326 325 324 323 324 322 320 319 319 319 317 313 311 311 312 312 312 312
319 319 319 319 319 319 319 320 321 321 322 321 322 322 324 325 326 328 329 327 324 323 323 325 323 324 323 323 324 324 320 319 318 318 316 313 311 311 311 311 310 310 310 310
319 318 318 319 320 320 320 320 321 321 321 322 322 322 324 325 326 327 328 328 324 325 324 321 320 324 322 321 321 320 319 318 317 312 310 310 310 310 310 310 311 311 311 311
318 318 318 318 319 320 320 321 321 321 321 321 322 323 323 323 325 328 328 327 327 326 322 321 321 322 322 320 319 318 316 312 309 309 309 309 310 310 311 311 311 310 310 311
317 317 318 318 319 319 320 321 319 319 320 321 322 322 323 323 326 326 327 327 324 319 317 319 320 320 319 318 315 310 308 308 307 306 305 305 306 306 306 307 308 308 308 309
317 317 318 318 320 320 320 320 320 320 319 320 320 323 324 325 326 326 326 325 320 320 319 318 318 318 315 311 308 307 307 307 307 307 307 305 304 305 306 307 307 307 307 307
317 318 318 317 319 321 320 320 321 323 324 324 324 325 325 326 326 325 323 323 323 319 316 317 316 313 309 307 307 307 308 308 308 308 306 304 303 303 304 305 304 303 304 304
318 318 317 317 317 321 322 322 321 322 322 324 326 324 326 325 323 324 324 323 320 316 315 314 311 308 308 309 309 310 309 309 309 308 307 306 304 303 302 300 300 301 301 301
317 318 317 316 316 316 318 321 319 319 320 319 319 322 323 321 320 323 323 320 316 315 313 312 310 310 310 310 310 310 310 310 309 309 308 307 306 305 303 301 301 300 300 300
317 318 318 318 317 318 317 316 318 320 319 317 320 319 322 322 322 322 321 320 316 314 313 313 312 312 312 313 313 313 312 311 310 310 309 308 308 307 306 306 301 299 300 299
315 315 316 316 317 318 318 319 319 317 317 319 321 319 317 316 320 322 321 320 318 315 313 312 313 313 313 314 314 313 313 313 312 311 309 309 309 308 307 307 306 302 300 300

GFSNGP_850_thetae_279.txt.gz
Theta_e
327 326 328 330 329 329 324 327 328 329 329 329 328 328 327 327 333 339 336 338 343 345 345 344 344 345 344 344 344 342 343 343 342 342 343 343 343 344 346 346 346 349 349 349
333 332 330 329 330 329 330 328 326 324 326 331 333 332 335 335 338 340 344 341 343 344 345 345 345 346 346 345 343 343 343 343 342 342 343 345 346 345 348 344 350 350 350 348
333 331 331 333 332 330 329 330 329 327 332 333 335 334 336 341 342 343 344 345 344 344 346 345 347 347 345 345 344 343 343 343 343 343 343 345 347 347 349 347 351 350 348 347
328 329 330 329 330 328 328 331 332 333 332 332 331 332 336 334 340 344 345 346 348 344 347 347 346 345 345 345 345 345 344 343 343 343 345 347 350 350 349 350 351 349 347 342
326 324 324 326 331 333 333 332 331 332 332 331 330 336 339 329 332 339 341 338 346 346 346 347 346 345 345 345 345 345 344 344 345 347 350 352 352 352 351 352 350 348 343 335
328 329 326 330 330 328 329 333 330 331 331 331 330 334 333 328 329 331 333 334 338 351 348 346 346 346 346 346 346 346 348 349 350 351 353 353 353 353 353 350 347 343 337 326
326 326 325 327 326 328 333 332 328 329 330 330 331 330 329 328 329 331 333 341 332 345 353 350 347 347 347 348 348 350 350 350 350 352 354 354 353 352 349 346 342 335 325 320
325 324 322 325 325 327 325 324 325 327 328 329 329 329 329 328 328 328 331 336 343 335 346 353 350 348 349 350 350 350 350 350 352 353 353 351 349 346 344 341 334 325 321 322
326 324 326 326 325 320 322 324 325 327 326 326 327 328 328 328 328 327 326 331 344 345 338 345 352 351 350 350 351 350 350 350 350 349 347 345 343 341 337 328 324 324 324 324
326 324 323 319 318 318 321 320 322 324 324 324 326 327 327 327 323 323 324 326 330 345 346 348 352 351 351 351 350 348 348 347 345 343 340 337 333 326 322 321 321 320 319 319
322 320 318 317 317 318 318 318 319 321 321 321 322 324 326 324 323 323 323 325 328 336 346 347 350 352 352 349 347 345 339 343 340 333 330 325 322 319 319 318 318 317 316 316
321 318 318 318 318 318 317 319 320 320 320 319 320 323 325 324 322 323 324 323 327 331 341 343 346 349 349 346 344 343 341 338 332 327 325 325 324 322 321 320 319 319 317 315
318 317 317 317 318 318 318 319 320 320 320 319 319 319 320 322 322 322 323 324 326 334 338 340 341 343 344 344 341 340 337 334 332 328 328 326 325 323 322 321 319 319 317 313
318 319 320 320 320 320 320 320 320 320 320 319 318 319 319 322 323 322 323 324 328 332 334 338 341 341 341 342 341 338 336 332 329 327 326 327 326 325 324 321 319 318 314 312
316 317 318 318 317 318 318 319 320 321 320 321 321 322 322 323 323 324 324 326 330 331 332 335 337 338 338 339 338 333 329 329 330 330 323 325 325 324 323 320 318 316 313 312
318 318 318 319 319 318 318 318 319 320 322 323 323 323 322 322 324 325 327 328 329 330 331 333 334 334 334 333 330 328 327 328 326 327 328 324 321 318 317 316 316 312 311 312
318 318 318 319 319 319 320 320 320 320 320 321 322 322 322 322 324 327 327 328 329 330 329 329 331 330 327 326 326 325 324 326 326 323 319 318 320 320 316 317 312 311 311 310
318 318 319 318 318 318 318 319 320 321 321 319 321 321 321 322 323 327 328 327 329 327 326 327 328 326 324 324 323 322 321 320 319 319 321 321 319 318 315 311 311 309 309 309
318 318 318 317 317 318 317 318 319 320 321 320 321 321 322 322 323 327 327 328 328 325 326 326 325 324 324 324 324 323 323 322 321 320 319 318 314 311 310 309 309 309 309 309
317 317 316 317 318 318 318 317 318 320 321 321 321 322 322 321 323 326 327 326 326 326 324 325 324 324 324 323 323 321 319 318 317 315 311 310 309 309 309 309 309 309 309 310
317 317 318 318 316 319 320 320 319 320 320 319 319 320 321 321 322 324 325 326 324 322 324 323 323 323 320 319 318 318 316 311 309 308 308 309 309 308 307 307 307 307 307 308
318 318 317 317 317 320 320 320 320 320 320 320 319 319 320 323 323 325 325 325 323 323 321 319 321 321 318 317 313 309 307 307 305 305 305 305 305 305 306 306 307 306 305 305
317 317 316 315 318 321 322 322 322 322 322 323 324 323 324 324 325 325 323 322 322 319 315 319 320 318 314 309 308 307 307 307 305 304 304 304 305 305 304 303 303 303 303 303
318 317 316 316 319 321 321 320 320 318 321 323 325 324 324 325 325 323 322 318 317 318 319 318 314 308 307 307 308 308 308 307 306 304 303 303 302 301 301 301 300 300 300 300
315 317 316 315 317 317 319 318 319 318 317 321 322 323 324 324 322 321 320 316 317 317 316 311 307 307 308 309 310 309 309 308 307 306 305 305 305 301 300 301 302 301 300 300
315 316 317 318 318 318 318 316 317 319 318 317 319 319 319 321 320 319 319 318 316 315 311 307 307 309 310 311 311 311 310 309 308 308 308 307 306 306 304 301 299 300 301 300
314 314 313 314 317 319 319 318 317 319 320 318 317 317 320 319 320 319 316 315 314 311 309 309 310 310 311 311 312 312 311 311 311 309 309 309 307 306 306 305 304 302 300 299

GFSNGP_850_thetae_282.txt.gz
Theta_e
334 333 332 332 333 333 334 334 334 334 334 334 334 335 334 335 339 341 342 344 347 350 351 351 351 348 345 347 349 349 344 343 343 343 343 343 343 343 344 345 346 344 353 350
335 333 334 334 334 333 333 333 334 334 334 334 335 333 335 338 343 345 347 348 350 350 352 353 354 347 344 344 344 348 345 343 343 343 344 343 343 343 345 347 349 344 352 351
336 333 333 336 334 334 334 334 334 334 335 336 336 336 337 339 341 344 345 346 348 352 353 354 354 354 352 346 344 344 344 343 343 343 343 342 343 344 354 357 349 346 350 350
331 330 333 331 330 331 331 331 331 333 334 334 334 334 337 334 334 336 339 343 345 346 354 354 355 354 348 351 345 344 343 343 343 343 343 344 343 346 354 355 353 348 351 349
325 325 324 324 324 328 332 332 334 334 334 334 334 336 339 333 332 333 335 339 344 346 354 355 357 356 352 350 346 345 345 345 344 343 343 344 347 353 356 356 350 351 349 346
326 326 327 329 331 330 331 331 334 334 334 334 334 337 339 334 332 332 333 334 341 345 349 356 357 357 356 353 347 351 353 358 356 352 347 351 356 357 355 351 351 348 346 343
327 327 326 326 328 327 329 331 329 330 331 332 335 333 332 331 331 332 332 332 336 343 345 349 356 357 356 356 356 356 357 348 351 353 358 358 358 354 353 351 349 347 343 334
326 327 327 327 326 326 326 326 326 327 328 330 329 328 329 329 329 329 330 330 333 337 345 349 352 358 357 358 359 358 355 350 354 352 356 359 354 353 350 348 346 342 333 325
326 325 329 327 326 326 324 324 325 325 327 328 327 327 328 328 328 328 329 330 332 335 338 347 351 350 354 356 357 355 354 353 354 350 350 352 350 348 346 344 342 336 325 322
326 325 325 325 324 322 321 323 322 321 322 323 325 325 324 326 327 328 329 329 332 333 336 340 349 348 353 353 354 353 353 351 350 350 351 346 343 343 343 340 338 336 332 331
324 323 322 321 320 320 320 320 320 320 320 322 323 323 323 324 326 328 328 329 331 332 333 337 342 345 350 351 352 350 348 349 348 346 344 345 337 335 333 330 329 329 326 323
322 320 320 320 319 320 320 319 320 320 320 320 321 321 322 323 326 327 328 328 328 332 333 332 333 340 344 347 349 349 345 345 341 343 342 338 329 322 318 317 317 317 317 316
319 318 319 319 319 319 320 321 322 322 322 322 322 322 322 323 324 324 327 328 328 330 332 334 331 335 341 343 346 346 345 342 340 338 331 324 320 318 318 318 317 315 317 315
319 319 319 319 319 319 320 320 319 320 321 322 322 323 324 324 324 325 326 326 328 332 332 330 332 334 339 340 344 345 345 342 338 330 324 321 320 320 320 320 318 317 316 315
318 318 319 319 319 319 319 319 320 320 320 321 322 324 325 325 326 327 327 329 331 332 329 327 329 334 335 336 341 343 343 338 330 325 324 324 323 323 322 321 318 316 315 312
318 319 319 320 319 319 320 320 321 321 321 321 321 322 325 327 327 327 328 331 332 331 330 328 330 332 333 334 336 338 337 332 329 328 327 326 324 324 321 317 316 315 313 311
318 319 318 317 318 320 320 319 319 320 321 322 321 321 324 326 326 327 328 331 331 330 329 328 330 331 331 330 333 333 333 332 330 329 326 325 324 322 317 315 316 313 311 312
318 318 318 318 318 320 318 318 319 320 320 321 322 323 324 325 326 327 327 329 332 329 326 329 329 330 330 330 331 330 328 329 328 326 324 323 319 318 318 317 314 312 311 310
316 315 315 316 318 317 318 317 317 319 320 321 322 323 324 325 326 327 327 329 328 329 326 327 326 326 327 327 327 328 327 325 321 324 321 320 320 319 317 312 311 310 310 310
314 317 317 318 317 317 317 317 317 318 320 320 322 323 325 326 326 325 327 328 328 328 326 326 326 325 325 324 324 322 321 321 320 320 320 320 317 312 310 310 309 309 311 311
315 316 317 316 315 317 320 320 320 320 320 322 323 324 325 325 325 326 327 326 327 326 326 326 325 325 324 324 324 322 316 317 319 319 316 311 309 309 309 310 311 311 310 310
314 317 315 313 315 320 322 322 321 321 321 322 323 324 325 325 326 327 328 326 325 325 325 324 322 324 321 320 318 317 318 317 312 310 310 309 310 309 309 308 308 308 308 308
314 316 314 316 318 320 320 319 320 321 322 322 323 325 325 325 325 326 325 325 324 323 321 321 319 319 319 317 315 312 309 307 309 309 308 309 309 309 308 307 306 305 305 305
313 316 316 316 317 317 318 318 320 321 320 321 321 323 325 325 325 325 324 323 323 320 318 320 316 317 314 312 312 310 307 307 306 306 306 308 308 307 306 306 304 302 301 303
314 314 317 318 317 317 317 318 320 317 318 318 318 321 324 324 324 322 320 317 315 315 315 315 315 314 311 309 308 307 306 304 303 303 303 302 303 304 305 305 305 302 303 305
314 315 315 316 318 318 318 319 319 318 317 318 315 316 320 320 319 317 316 316 316 317 317 312 308 309 309 309 309 308 308 306 307 307 307 307 306 305 305 305 303 304 305 305
316 314 315 315 316 316 318 318 318 317 317 317 318 315 317 316 316 316 316 317 314 308 306 309 310 311 311 311 311 310 309 310 309 309 308 308 307 307 305 305 304 303 303 304

GFSNGP_850_thetae_285.txt.gz
Theta_e
335 335 336 336 336 336 336 336 337 336 335 336 337 338 336 336 340 343 345 347 350 353 353 354 353 353 352 351 350 350 350 353 353 346 347 337 341 341 343 344 348 355 361 361
337 337 337 337 335 336 335 335 336 336 336 336 338 337 337 338 341 344 346 347 349 350 354 356 356 357 356 354 353 351 351 351 354 354 354 348 349 356 354 354 355 363 362 362
338 336 336 337 335 335 335 336 335 336 336 338 337 336 336 338 339 340 341 343 347 347 349 357 358 358 359 358 358 355 355 352 353 353 350 350 351 359 362 360 364 364 361 358
335 334 336 333 331 331 332 332 333 334 334 336 336 335 334 337 337 337 338 339 343 346 350 357 357 358 358 358 359 359 356 356 355 354 353 354 355 360 361 363 363 360 360 351
330 329 329 327 327 328 328 328 333 334 334 335 336 335 337 338 336 336 336 336 336 340 345 350 359 360 361 359 358 360 360 359 358 358 359 361 362 363 364 362 358 359 352 350
327 327 327 327 332 330 331 331 335 335 336 336 335 337 338 335 335 335 335 334 333 335 339 345 349 356 360 361 358 358 359 359 359 359 360 362 363 363 361 359 358 356 351 349
327 328 327 327 330 329 330 333 331 331 333 333 336 336 335 332 332 332 332 332 332 333 336 344 348 352 359 360 360 360 360 359 362 363 362 362 363 361 359 357 355 351 349 345
329 329 328 330 329 330 331 328 329 329 330 331 331 331 330 330 331 331 331 331 331 332 335 337 344 349 351 358 359 360 361 360 363 364 363 359 357 359 359 354 353 350 345 337
331 331 330 329 329 328 326 325 325 327 327 326 326 327 328 328 328 328 330 331 331 331 333 334 338 344 350 351 355 356 356 359 360 361 360 360 354 357 354 353 351 346 340 338
327 326 326 325 326 325 325 324 323 323 323 323 323 324 325 327 327 327 328 330 330 330 332 334 335 339 344 348 352 353 353 353 338 353 358 358 357 352 350 348 347 344 338 336
325 324 323 323 323 323 322 321 322 322 322 322 322 322 323 324 324 325 326 329 330 330 330 332 334 336 339 345 347 351 353 350 353 353 353 353 351 351 349 346 344 341 335 331
324 322 322 322 321 321 321 321 321 321 321 322 323 323 323 323 323 324 325 327 328 330 329 330 332 334 337 338 342 350 351 350 350 349 347 348 346 342 336 340 335 333 326 318
321 320 320 320 320 320 320 320 320 321 322 322 322 322 323 324 325 325 325 326 327 327 328 329 331 333 335 335 341 344 349 348 348 346 344 341 340 340 339 333 332 318 317 315
320 320 319 319 319 319 319 320 320 320 320 320 321 322 322 324 325 326 326 325 326 327 327 328 332 333 334 335 338 342 346 347 346 345 341 339 333 327 324 322 320 317 317 315
319 318 319 319 319 319 320 321 321 321 321 322 322 322 322 323 324 325 326 327 328 328 328 331 333 333 334 333 336 339 341 344 345 341 338 337 323 320 319 319 319 317 316 315
317 317 317 318 319 321 321 320 320 322 322 322 322 321 323 323 323 324 326 327 328 330 330 332 333 333 332 332 333 336 338 341 341 338 336 328 325 323 325 325 320 317 317 313
317 317 318 318 319 319 319 320 321 321 321 321 321 321 322 322 323 323 325 327 327 331 332 332 334 332 330 330 332 334 334 335 336 333 326 325 326 326 324 321 318 316 314 312
316 318 318 317 318 318 317 317 318 319 320 320 320 321 321 323 323 324 325 326 328 330 331 329 326 327 328 329 330 331 333 332 331 329 327 326 326 324 322 319 318 315 313 311
316 317 316 317 316 317 316 317 318 318 318 320 321 320 321 323 323 324 325 326 328 330 330 327 327 326 327 328 329 328 329 329 329 327 327 326 323 319 318 318 317 315 312 310
317 317 315 315 314 315 315 316 319 320 320 320 319 322 321 322 324 324 325 326 328 329 329 327 326 326 327 328 328 328 327 327 327 327 326 324 322 320 316 313 312 311 312 311
317 317 316 313 315 317 319 321 323 322 321 322 322 322 323 323 325 325 325 326 328 329 328 327 326 326 326 327 325 324 323 323 322 322 320 320 320 316 312 311 311 311 311 310
317 314 314 314 317 317 318 321 321 322 323 322 322 324 325 325 326 327 327 327 327 326 326 325 325 324 324 324 323 322 320 319 319 319 318 315 312 310 311 310 310 310 309 309
317 314 315 317 316 317 316 318 319 318 319 320 320 322 323 325 325 326 327 325 324 324 325 325 323 323 321 319 318 317 314 313 314 313 312 312 312 312 310 310 309 308 308 307
316 315 314 316 317 317 317 317 318 317 317 317 318 318 323 324 325 325 326 325 324 324 322 322 321 318 317 315 314 313 311 311 310 311 311 311 311 311 310 309 309 308 305 307
317 318 317 316 317 317 318 317 316 317 317 317 316 318 324 324 325 324 324 323 321 320 317 315 312 310 309 310 310 310 310 310 311 309 309 310 310 310 309 308 308 306 308 308
316 316 316 316 316 317 317 317 316 317 316 314 314 315 320 319 320 318 317 317 316 316 315 315 315 315 313 311 310 308 308 306 307 308 308 308 308 308 308 307 305 307 308 308
315 314 314 315 316 317 316 318 317 317 316 316 315 315 315 315 316 316 316 316 315 314 312 311 311 311 310 310 310 309 309 309 309 309 308 308 307 307 307 307 308 308 308 308

GFSNGP_850_thetae_288.txt.gz
Theta_e
334 335 335 336 336 337 336 334 334 335 337 337 343 340 338 340 342 345 348 349 350 350 350 354 356 356 353 353 352 350 350 350 350 350 350 345 335 331 335 341 342 346 351 357
336 336 336 337 337 337 336 336 336 336 336 336 339 339 340 340 342 343 344 345 349 348 350 353 358 357 358 356 353 354 352 351 351 350 351 349 339 331 335 340 344 353 356 362
339 337 337 337 336 336 336 336 335 336 337 336 340 339 337 339 340 340 340 341 343 345 348 352 359 359 358 359 358 354 354 357 352 351 351 353 350 341 339 348 356 358 361 361
336 335 337 335 334 333 332 332 334 334 334 338 338 337 339 339 339 338 339 339 338 338 341 347 353 359 361 360 360 360 357 358 358 355 353 355 357 354 353 354 358 360 362 360
331 332 331 330 329 329 329 330 337 337 338 336 337 336 341 340 339 338 337 336 336 335 336 342 348 350 355 359 362 361 363 360 361 359 357 358 360 360 356 358 359 361 361 360
327 327 328 328 329 331 331 332 335 335 337 338 337 338 340 336 335 335 335 334 334 334 335 339 340 349 348 350 359 361 359 362 361 361 362 363 364 360 358 359 360 361 359 358
327 327 326 329 330 330 332 335 332 332 333 334 336 336 335 333 332 333 333 333 333 333 333 335 337 342 348 348 351 358 360 361 360 361 360 362 363 363 360 361 361 360 357 356
330 330 329 331 332 336 333 331 329 330 331 331 331 330 330 330 329 330 330 330 332 332 332 333 335 336 338 337 347 344 353 358 360 359 361 362 363 365 363 362 361 358 357 351
329 331 329 328 330 329 329 328 327 326 327 328 327 326 326 325 326 326 329 329 329 331 332 331 333 334 329 324 331 335 346 353 356 357 357 357 359 364 363 361 358 356 351 345
329 328 327 326 324 325 324 324 324 325 324 324 324 324 324 324 324 324 326 327 327 328 330 332 331 332 332 328 325 338 338 353 352 352 352 354 354 359 357 354 354 352 347 342
325 324 324 324 325 324 324 323 323 323 323 323 324 324 323 324 324 324 324 324 325 326 328 331 332 330 332 333 331 331 337 346 349 351 350 347 338 336 349 352 351 347 342 339
325 324 324 324 323 322 322 322 321 321 322 322 323 324 324 324 324 324 327 326 327 326 327 329 330 329 331 331 332 332 335 338 347 349 348 342 338 336 344 338 348 345 338 337
322 323 322 322 321 320 320 320 321 321 321 321 322 321 321 322 322 321 322 326 326 327 326 327 327 330 330 331 333 333 335 340 340 348 348 347 339 337 338 336 336 336 333 332
322 321 321 320 320 320 320 320 320 320 322 321 322 322 323 323 323 323 323 324 327 329 328 325 325 327 326 332 334 333 330 339 338 344 347 345 341 337 333 330 331 333 331 317
321 320 319 318 317 319 319 320 320 321 321 322 322 322 323 324 322 321 322 325 323 323 327 329 330 328 331 334 331 333 332 335 338 340 344 343 342 339 336 332 332 328 320 316
319 318 318 318 320 319 319 318 319 320 320 320 322 323 323 322 323 323 323 322 326 324 323 327 329 331 333 332 333 330 331 334 336 338 340 341 336 336 329 324 323 320 318 315
318 317 318 318 317 317 317 318 319 319 319 320 320 321 321 322 322 323 322 323 322 326 326 326 326 331 328 330 329 328 329 332 335 336 338 338 331 323 321 323 319 318 317 315
316 316 318 318 318 318 317 316 317 318 319 318 319 320 321 321 322 322 322 322 323 324 327 327 320 324 329 326 328 329 330 332 333 333 332 330 326 328 326 325 321 320 318 315
314 316 318 318 317 316 314 316 317 318 318 319 319 320 320 320 320 321 322 322 324 324 325 326 329 326 326 326 328 329 330 331 332 331 330 327 326 325 323 320 319 315 312 315
315 317 318 316 314 314 313 317 318 320 321 322 321 321 320 320 321 321 322 322 324 324 325 326 327 326 325 326 328 328 329 331 331 329 326 326 324 321 319 318 317 315 313 313
318 318 318 315 315 315 315 317 317 319 319 320 321 321 324 323 323 323 323 324 324 324 326 326 326 325 326 326 327 328 328 327 327 326 326 324 324 322 321 319 318 319 319 311
318 318 316 314 315 316 317 318 317 318 318 319 320 321 322 323 324 324 324 324 325 326 326 326 326 325 325 325 325 325 325 326 326 326 325 324 323 321 319 319 318 317 314 311
318 317 316 316 316 316 317 317 316 317 317 317 318 318 319 321 323 324 325 325 324 325 325 323 324 324 324 324 322 321 321 321 321 320 319 318 316 312 312 311 311 311 311 311
318 317 317 316 316 317 316 317 317 316 315 314 314 315 317 319 324 322 323 325 324 324 324 325 322 321 320 318 316 314 314 312 312 312 312 312 311 311 310 310 309 309 309 309
316 315 316 316 317 316 317 316 316 315 315 313 313 315 321 323 324 324 324 324 323 323 322 319 318 316 315 312 312 312 311 312 312 312 311 312 311 310 310 310 309 307 308 308
318 316 315 315 315 317 316 316 316 315 316 315 314 313 315 316 317 318 318 316 317 315 312 310 309 309 310 310 311 312 313 313 313 311 311 311 310 309 308 308 307 309 309 309
314 314 315 315 316 316 317 317 315 315 315 315 314 315 314 315 313 314 313 313 313 313 313 313 313 312 311 310 309 309 309 309 309 309 310 310 310 309 308 307 309 309 309 309

GFSNGP_850_thetae_291.txt.gz
Theta_e
332 332 332 333 334 335 336 332 333 331 337 340 340 340 343 347 346 346 348 348 347 347 347 353 357 356 359 356 348 347 348 348 348 349 349 347 343 337 332 334 331 342 348 350
335 334 333 335 334 334 334 335 335 333 334 339 340 342 343 343 342 341 341 342 344 346 346 348 353 358 359 358 360 355 349 349 349 349 349 350 349 344 336 330 332 341 344 351
339 335 334 335 336 333 331 334 332 334 340 337 338 340 340 340 339 339 339 338 337 339 339 350 348 353 358 360 361 362 358 357 353 351 350 350 350 349 344 332 333 338 344 353
331 330 334 332 329 328 328 336 336 337 339 338 339 339 339 338 338 337 337 336 335 335 335 339 344 345 354 354 359 361 364 362 358 360 356 353 352 351 349 346 338 338 349 354
330 330 329 330 330 332 332 335 334 337 339 340 339 337 336 335 336 336 335 334 334 334 334 335 337 335 333 330 340 355 359 361 360 361 361 359 356 354 352 351 350 351 357 355
325 328 328 332 332 332 330 337 332 333 334 336 338 339 336 333 333 333 333 333 332 332 332 332 333 333 328 334 330 330 341 355 360 362 360 360 360 358 357 357 357 358 359 356
326 326 328 329 333 333 332 336 331 330 331 331 332 332 329 329 329 329 330 331 330 331 332 332 331 331 331 326 325 323 324 327 331 355 359 358 361 362 360 358 358 362 360 361
328 333 335 331 332 335 331 326 326 325 326 329 328 327 326 325 325 325 325 326 329 329 330 331 332 331 332 329 327 324 322 321 323 348 353 358 358 357 357 359 360 362 364 362
330 331 329 326 326 325 324 325 324 324 324 324 324 325 325 324 324 324 324 324 324 326 328 328 329 330 331 331 329 325 324 322 321 333 350 352 356 354 355 355 357 360 362 358
325 327 325 324 324 324 324 324 323 323 323 323 323 323 324 324 325 325 325 325 323 323 324 324 325 325 331 331 330 333 331 328 322 326 347 349 351 352 349 345 339 338 352 352
326 326 324 324 323 323 322 321 322 322 322 322 322 322 322 322 323 324 324 324 325 327 327 327 327 326 327 331 329 332 331 328 324 329 347 348 349 346 348 344 338 335 334 343
326 324 324 323 322 321 321 321 321 321 320 321 320 320 321 321 323 322 321 321 322 322 321 325 326 325 324 328 327 330 331 331 329 330 338 345 346 345 339 336 334 333 334 333
322 321 321 321 320 320 319 319 319 319 321 322 321 321 322 321 322 323 322 322 321 320 321 324 328 329 328 327 328 328 327 332 332 327 337 340 343 345 336 336 338 333 335 341
321 321 320 320 319 319 319 319 319 320 320 320 320 321 321 323 322 321 323 323 322 322 320 322 323 323 324 328 328 326 331 334 333 327 334 338 343 343 338 335 336 339 340 338
321 320 319 319 318 319 319 318 317 317 318 318 317 319 320 320 321 322 323 323 323 323 322 321 326 326 323 325 329 330 331 331 329 330 330 337 339 339 337 337 335 333 335 332
319 319 318 318 318 318 318 318 318 317 317 316 318 318 318 319 320 321 321 323 323 322 323 323 322 324 324 326 327 330 330 329 329 328 330 335 336 338 336 336 334 334 336 334
317 317 317 317 319 319 317 316 316 316 315 316 317 318 319 319 319 320 320 321 321 322 322 321 321 322 325 325 325 325 327 329 327 328 330 333 333 337 337 336 334 333 331 330
316 315 316 318 317 315 315 314 314 315 317 317 318 319 320 320 320 320 320 321 321 322 321 321 323 322 325 324 320 320 320 327 327 329 331 333 335 335 334 332 330 323 321 321
317 316 317 317 316 315 315 316 315 316 317 317 319 319 320 320 321 322 321 321 321 320 320 321 322 323 325 320 323 325 325 327 329 331 331 331 333 331 327 324 322 321 319 315
316 316 318 318 317 315 315 315 316 317 316 317 317 318 318 320 321 322 322 322 321 321 321 321 324 325 325 325 325 325 326 328 328 330 330 331 328 326 324 324 321 320 319 316
317 318 318 318 316 315 316 316 317 317 317 317 316 316 317 318 320 322 324 324 322 322 322 323 324 324 325 325 325 326 327 328 328 327 328 328 327 327 324 320 318 316 315 316
317 318 317 316 316 316 317 316 317 316 315 314 315 313 314 317 318 320 323 323 323 323 323 324 324 325 325 325 326 326 326 326 325 324 325 326 323 320 321 320 318 315 313 313
318 316 315 316 316 316 316 317 316 316 315 314 313 313 314 315 317 321 322 323 324 324 324 325 325 325 324 323 324 324 324 323 322 322 323 321 321 320 319 319 318 316 313 313
317 315 316 315 315 316 316 316 315 315 314 314 312 313 316 320 320 323 321 322 324 320 324 324 324 323 323 322 321 321 322 321 319 319 318 317 315 314 313 312 311 311 311 311
316 316 317 315 315 317 317 316 314 314 313 313 313 313 315 318 319 319 321 323 323 323 323 321 320 319 318 317 316 313 313 312 312 312 311 311 311 310 310 310 310 310 310 310
314 314 314 314 316 316 317 316 315 315 313 313 312 313 313 314 314 314 314 315 315 313 312 312 311 311 312 312 312 312 312 312 312 312 312 313 311 310 311 309 308 308 309 309
315 314 313 314 315 315 315 316 315 316 316 313 312 311 311 311 311 311 311 311 310 311 312 311 311 311 311 311 312 312 312 312 312 312 311 309 309 309 308 309 309 310 309 309